Corlu, Turkey

12:06 AM +03 on March 30, 2017 (GMT +0300)
Corlu Air Base

Weather History for LTBU - January, 2013

Change the Weather History Date:

Thursday, January 10, 2013

  Actual Average (LTBA) Record (LTBA)
Temperature  
Mean Temperature 31 °F -  
Max Temperature 39 °F 46 °F 60 °F (2003)
Min Temperature 23 °F 38 °F 19 °F (2013)
Degree Days  
Heating Degree Days 34    
Moisture  
Dew Point 24 °F    
Average Humidity 75    
Maximum Humidity 87    
Minimum Humidity 52    
Precipitation  
Precipitation 0.00 in - - ()
Sea Level Pressure  
Sea Level Pressure 30.12 in    
Wind  
Wind Speed 4 mph ()    
Max Wind Speed 12 mph    
Max Gust Speed -    
Visibility 6.2 miles    
Events      
Averages and records for this station are not official NWS values.
T = Trace of Precipitation, MM = Missing Value Source: Averaged Metar Reports

Daily Weather History Graph

Daily Weather History Graph

Search for Another Location

Airport or City:

Trip Planner

Search our weather history database for the weather conditions in past years. The results will help you decide how hot, cold, wet, or windy it might be!

Date:

Astronomy

Jan. 10, 2013 Rise Set
Actual Time 7:33 AM EET 4:58 PM EET
Civil Twilight 7:02 AM EET 5:29 PM EET
Nautical Twilight 6:28 AM EET 6:03 PM EET
Astronomical Twilight 5:55 AM EET 6:37 PM EET
Moon 5:53 AM EET (1/10) 3:44 PM EET (1/10)
Length of Visible Light 10h 27m
Length of Day
9h 25m
Waning Crescent, 3% of the Moon is Illuminated
Jan 10
Waning Crescent
Jan 11
New
Jan 19
First Quarter
Jan 27
Full
Feb 3
Last Quarter

Hourly Weather History & Observations

Time (EET) Temp. Windchill Dew Point Humidity Pressure Visibility Wind Dir Wind Speed Gust Speed Precip Events Conditions
12:20 AM 24.8 °F - 21.2 °F 86% 30.21 in - North 2.3 mph - N/A   Clear
12:50 AM 24.8 °F - 21.2 °F 86% 30.21 in - NNW 1.2 mph - N/A   Clear
1:20 AM 24.8 °F - 21.2 °F 86% 30.21 in - NNW 2.3 mph - N/A   Clear
1:50 AM 24.8 °F 19.1 °F 21.2 °F 86% 30.21 in - North 4.6 mph - N/A   Clear
2:20 AM 24.8 °F 17.9 °F 21.2 °F 86% 30.21 in - NNE 5.8 mph - N/A   Clear
3:20 AM 24.8 °F 17.9 °F 21.2 °F 86% 30.21 in - NNE 5.8 mph - N/A   Clear
3:50 AM 24.8 °F 17.9 °F 21.2 °F 86% 30.21 in - North 5.8 mph - N/A   Clear
4:20 AM 24.8 °F 19.1 °F 21.2 °F 86% 30.18 in - North 4.6 mph - N/A   Clear
5:20 AM 24.8 °F 19.1 °F 19.4 °F 80% 30.18 in - NNW 4.6 mph - N/A   Clear
5:50 AM 23.0 °F 18.4 °F 19.4 °F 86% 30.18 in - NNW 3.5 mph - N/A   Clear
6:20 AM 24.8 °F - 21.2 °F 86% 30.18 in - North 1.2 mph - N/A   Clear
6:50 AM 23.0 °F - 19.4 °F 86% 30.18 in 6.2 mi NW 2.3 mph - N/A   Scattered Clouds
7:20 AM 23.0 °F - 19.4 °F 86% 30.18 in 6.2 mi North 1.2 mph - N/A   Scattered Clouds
7:50 AM 23.0 °F - 19.4 °F 86% 30.18 in 6.2 mi Variable 1.2 mph - N/A   Partly Cloudy
8:20 AM 23.0 °F - 19.4 °F 86% 30.18 in 6.2 mi Calm Calm - N/A   Partly Cloudy
8:50 AM 28.4 °F - 24.8 °F 86% 30.18 in 6.2 mi SW 1.2 mph - N/A   Partly Cloudy
9:20 AM 33.8 °F - 23.0 °F 65% 30.18 in 6.2 mi Variable 2.3 mph - N/A   Partly Cloudy
9:50 AM 33.8 °F 30.8 °F 24.8 °F 70% 30.18 in 6.2 mi Variable 3.5 mph - N/A   Partly Cloudy
10:20 AM 35.6 °F 31.7 °F 26.6 °F 70% 30.18 in 6.2 mi SSE 4.6 mph - N/A   Partly Cloudy
10:50 AM 37.4 °F 32.1 °F 26.6 °F 65% 30.15 in 6.2 mi SSE 6.9 mph - N/A   Partly Cloudy
11:20 AM 37.4 °F 30.3 °F 26.6 °F 65% 30.15 in 6.2 mi South 10.4 mph - N/A   Partly Cloudy
11:50 AM 39.2 °F 32.5 °F 26.6 °F 61% 30.15 in 6.2 mi South 10.4 mph - N/A   Partly Cloudy
12:20 PM 39.2 °F 32.5 °F 24.8 °F 56% 30.12 in 6.2 mi South 10.4 mph - N/A   Partly Cloudy
12:50 PM 37.4 °F 30.3 °F 23.0 °F 56% 30.12 in 6.2 mi South 10.4 mph - N/A   Partly Cloudy
1:20 PM 37.4 °F 29.8 °F 23.0 °F 56% 30.09 in 6.2 mi South 11.5 mph - N/A   Mostly Cloudy
1:50 PM 37.4 °F 30.3 °F 23.0 °F 56% 30.09 in 6.2 mi SSW 10.4 mph - N/A   Mostly Cloudy
2:20 PM 37.4 °F 30.3 °F 21.2 °F 52% 30.09 in 6.2 mi SSW 10.4 mph - N/A   Mostly Cloudy
2:50 PM 39.2 °F 32.5 °F 23.0 °F 52% 30.09 in - SSW 10.4 mph - N/A   Clear
3:20 PM 37.4 °F 30.8 °F 23.0 °F 56% 30.09 in - SSW 9.2 mph - N/A   Clear
3:50 PM 37.4 °F 32.1 °F 24.8 °F 60% 30.09 in - SSW 6.9 mph - N/A   Clear
4:20 PM 35.6 °F 30.7 °F 24.8 °F 65% 30.06 in - South 5.8 mph - N/A   Clear
5:20 PM 33.8 °F 30.8 °F 24.8 °F 70% 30.06 in - SSW 3.5 mph - N/A   Clear
5:50 PM 32.0 °F 28.7 °F 24.8 °F 75% 30.06 in - SSW 3.5 mph - N/A   Clear
6:20 PM 33.8 °F 28.6 °F 24.8 °F 70% 30.06 in - South 5.8 mph - N/A   Clear
6:50 PM 33.8 °F 28.6 °F 26.6 °F 75% 30.06 in - South 5.8 mph - N/A   Clear
7:20 PM 35.6 °F 30.7 °F 26.6 °F 70% 30.04 in - South 5.8 mph - N/A   Clear
7:50 PM 33.8 °F 29.6 °F 26.6 °F 75% 30.04 in - South 4.6 mph - N/A   Clear
8:20 PM 33.8 °F 27.7 °F 26.6 °F 75% 30.04 in - South 6.9 mph - N/A   Clear
8:50 PM 33.8 °F 28.6 °F 28.4 °F 81% 30.04 in - South 5.8 mph - N/A   Clear
9:20 PM 33.8 °F 29.6 °F 28.4 °F 81% 30.04 in - SSW 4.6 mph - N/A   Clear
9:50 PM 33.8 °F - 30.2 °F 87% 30.04 in - SSW 2.3 mph - N/A   Clear
10:20 PM 33.8 °F 30.8 °F 30.2 °F 87% 30.04 in - Variable 3.5 mph - N/A   Clear
10:50 PM 35.6 °F 30.7 °F 32.0 °F 87% 30.04 in - SW 5.8 mph - N/A   Clear
11:20 PM 33.8 °F 27.0 °F 30.2 °F 87% 30.04 in - SW 8.1 mph - N/A   Clear
11:50 PM 33.8 °F 28.6 °F 30.2 °F 87% 30.04 in - WSW 5.8 mph - N/A   Clear